Back to catalog

COSMOS 617

AliveMilitaryLEO
NORAD 6985·PAYLOAD·🇷🇺 Russia

Launched Dec 19, 1973 from Plesetsk Cosmodrome

Loading…

Next Passes (next 24 hours)

TLE

FreshSource: Space-Track

Epoch: Sep 14, 2026, 10:59 UTC

1 06985U 73104A   26257.45796394 -.00000019  00000-0 -12040-4 0  9995
2 06985  74.0265 276.9347 0096918 294.1963 134.4501 12.63533429432509

Track COSMOS 617 in real time with AllMySat

Download on the App Store